www.pogodaiklimat.ru
ПОГОДА на Сейшелах
Время
(UTC), дата
12 21.02
15 21.02
18 21.02
21 21.02
00 22.02
03 22.02
06 22.02
09 22.02
12 22.02
15 22.02
18 22.02
21 22.02
00 23.02
03 23.02
06 23.02
09 23.02
12 23.02
15 23.02
18 23.02
21 23.02
00 24.02
03 24.02
06 24.02
09 24.02
12 24.02
15 24.02
18 24.02
21 24.02
00 25.02
03 25.02
06 25.02
09 25.02
12 25.02
15 25.02
18 25.02
21 25.02
00 26.02
03 26.02
06 26.02
09 26.02
12 26.02
15 26.02
18 26.02
21 26.02
00 27.02
03 27.02
06 27.02
09 27.02
12 27.02
15 27.02
18 27.02
21 27.02
00 28.02
03 28.02
06 28.02
Ветер
(напр.,м/с)
Видим. Явления Облачность Т
(С)
Тd
(С)
f
(%)
Тe
(С)
Тes
(С)
Комфортность P
(гПа)
Po
(гПа)
Тmin
(С)
Tmax
(С)
R
(мм)
R24
(мм)
S
(см)
С 7
{8}
40 км 8/1 700 м
[Cu hum Ac trans Ci fib]
+29.6 +23.0 68 +40 +41 очень
душно
1009.0 1008.7
СЗ 5
{7}
40 км 9/1 660 м
[Cu hum Ac trans Ci fib]
+28.1 +22.7 73 +37 +37 очень
душно
1010.8 1010.5
З 2
{5}
30 км 8/0
[Ac trans]
+27.1 +23.0 78 +36 +36 очень
душно
1012.2 1011.9 +30.4
СЗ 3
{4}
10 км 3/3 660 м
[Cu hum Ac lent]
+26.6 +22.7 79 +35 +35 очень
душно
1011.4 1011.1
СЗ 3
{3}
10 км 3/3 660 м
[Cu hum]
+26.6 +22.9 80 +35 +35 очень
душно
1010.1 1009.8
ЮЗ 2
{5}
30 км 1/1 570 м
[Cu Sc Ci sp]
+27.4 +23.3 78 +37 +38 очень
душно
1012.5 1012.2
С 4
{5}
40 км 4/1 720 м
[Cu hum Ci fib]
+29.3 +23.2 70 +40 +48 очень
душно
1013.1 1012.8 +25.4
С 5
{5}
50 км 9/3 750 м
[Cu hum Ci fib]
+29.6 +24.1 72 +41 +47 опасность
перегрева
1011.2 1010.9
С 7
{7}
50 км 6/3 750 м
[Cu hum Ci fib]
+30.0 +23.3 67 +40 +42 очень
душно
1009.2 1008.9
СЗ 7
{7}
20 км 4/1 840 м
[Cu hum Ci fib]
+27.7 +22.7 74 +37 +37 очень
душно
1010.1 1009.8
СЗ 3
{5}
40 км 8/1 750 м
[Cu hum Ci sp]
+27.1 +22.8 77 +36 +36 очень
душно
1011.8 1011.5 +30.3
СВ 2
{4}
30 км 8/3 700 м
[Cu med, cong Ci sp]
+26.6 +22.9 80 +35 +35 очень
душно
1010.7 1010.4
З 3
{4}
20 км 3/1 660 м
[Cu hum Ac lent Ci sp]
+26.7 +22.8 79 +35 +35 очень
душно
1010.1 1009.8
СЗ 4
{4}
30 км 8/1 700 м
[Cu hum Ci]
+26.7 +22.8 79 +35 +36 очень
душно
1011.4 1011.1
С 5
{5}
40 км 6/3 660 м
[Cu Sc Ci]
+30.3 +23.9 69 +42 +47 опасность
перегрева
1012.6 1012.3 +26.2
С 6
{8}
40 км слаб. ливневой дождь 8/6 600 м
[Cu Sc Ci fib]
+28.2 +24.3 79 +39 +42 очень
душно
1010.7 1010.4
СЗ 8
{13}
40 км {ливн. дождь} 5/4 660 м
[Cu Sc Ci fib]
+29.2 +24.2 74 +41 +41 опасность
перегрева
1008.5 1008.2
СЗ 7
{7}
30 км 4/3 700 м
[Cu Sc Ci fib]
+28.4 +24.1 78 +40 +40 очень
душно
1010.3 1010.0
СЗ 3
{6}
30 км 5/5 660 м
[Cu Sc]
+28.0 +24.1 79 +39 +39 очень
душно
1012.4 1012.1 +31.0 0.4
СЗ 4
{4}
20 км 1/1 600 м
[Cu Sc]
+27.5 +23.6 79 +37 +37 очень
душно
1010.8 1010.5
СЗ 3
{5}
20 км 1/1 660 м
[Cu Sc]
+26.4 +23.1 82 +35 +35 очень
душно
1009.1 1008.8
С 2
{4}
30 км 6/3 570 м
[Cu Sc Ci sp]
+27.1 +23.4 80 +37 +37 очень
душно
1011.0 1010.7
СЗ 5
{7}
30 км 9/6 <50 м
[Cb calv Ac lent Ci sp]
+28.8 +23.8 74 +39 +41 очень
душно
1012.5 1012.2 +26.0 0.4
С 8
{9}
30 км 9/6 660 м
[Sc diur, vesp Ac lent Ci sp]
+30.1 +24.4 72 +42 +43 опасность
перегрева
1009.8 1009.5
СЗ 7
{9}
30 км 9/6 660 м
[Cu med, cong Ac lent Ci sp]
+29.0 +23.6 73 +40 +40 очень
душно
1008.1 1007.8
СЗ 5
{9}
30 км 9/6 720 м
[Cu med, cong Ac lent Ci sp]
+28.2 +23.9 78 +39 +39 очень
душно
1010.7 1010.4
СЗ 3
{6}
30 км 8/3 660 м
[Cu Sc Ac trans Ci]
+27.8 +23.3 77 +38 +38 очень
душно
1011.8 1011.5 +31.0
СЗ 3
{5}
20 км 8/3 720 м
[Cu hum Ci fib]
+27.5 +23.0 76 +37 +37 очень
душно
1010.6 1010.3
СЗ 3
{4}
20 км 9/3 660 м
[Cu hum Ci fib]
+26.1 +24.0 88 +36 +36 очень
душно
1008.8 1008.5
СЗ 3
{4}
40 км 9/3 660 м
[Cu Sc Ac trans Ci]
+26.8 +23.7 83 +37 +37 очень
душно
1010.6 1010.3
С 7
{7}
60 км 9/6 600 м
[Cu Sc Ac und Ci sp]
+29.0 +24.7 78 +41 +43 опасность
перегрева
1012.1 1011.8 +26.0
С 6
{9}
60 км 9/8 720 м
[Cu Sc Ci sp]
+29.4 +24.6 75 +42 +43 опасность
перегрева
1010.6 1010.3
СЗ 7
{9}
60 км 9/4 720 м
[Cu med, cong Ac trans Ci sp]
+29.7 +24.2 72 +41 +42 опасность
перегрева
1008.7 1008.4
СЗ 3
{9}
20 км 8/3 660 м
[Cu med, cong Ac und Ci sp]
+28.3 +23.8 77 +39 +39 очень
душно
1010.3 1010.0
СЗ 5
{6}
30 км 8/5 660 м
[Cu med, cong Ac lent Ci sp]
+27.9 +23.8 78 +38 +38 очень
душно
1011.1 1010.8 +30.3
СЗ 4
{5}
20 км 10/4 630 м
[Cu med, cong Ac trans]
+27.7 +23.8 79 +38 +38 очень
душно
1009.9 1009.6
СЗ 4
{5}
20 км 10/3 630 м
[Cu med, cong Ac trans]
+27.5 +24.0 81 +38 +38 очень
душно
1009.0 1008.7
СЗ 3
{4}
20 км 9/5 540 м
[Cu med, cong Ac lent Ci sp]
+27.7 +24.0 80 +38 +38 очень
душно
1010.3 1010.0
С 7
{7}
40 км 9/6 600 м
[Cu Sc Ac lent Ci sp]
+29.6 +25.2 77 +43 +44 опасность
перегрева
1011.7 1011.4 +27.2
СЗ 5
{8}
20 км 9/9 600 м
[Cu Sc]
+29.2 +24.4 75 +41 +42 опасность
перегрева
1010.0 1009.7
СЗ 5
{8}
5000 м ливневой дождь 10/10 360 м
[Cb cap]
+26.6 +25.0 91 +38 +38 очень
душно
1008.1 1007.8
СЗ 2
{6}
30 км {ливн. дождь, дождь} 5/5 600 м
[Cb cap Ac lent]
+27.5 +24.2 82 +38 +38 очень
душно
1009.0 1008.7
СЗ 4
{5}
10 км {ливн. дождь} 8/4 600 м
[Cu med, cong Ci sp]
+27.5 +24.2 82 +38 +38 очень
душно
1010.0 1009.7 +29.8 4
СЗ 6
{6}
<100 м слаб. дождь 10/9 270 м
[Cb cap Ac As Ci ing]
+25.6 +24.9 96 +36 +36 очень
душно
1008.5 1008.2
З 3
{6}
20 км {дождь} 10/5 500 м
[Cb cap Ci]
+26.6 +24.3 87 +37 +37 очень
душно
1007.6 1007.3
СЗ 5
{5}
60 км в посл. час дождь 9/8 500 м
[Cb cap Ac lent Ci sp]
+27.2 +24.1 83 +38 +38 очень
душно
1008.8 1008.5
СЗ 6
{9}
40 км 10/5 600 м
[Cb cap Cs]
+28.9 +24.8 79 +41 +44 опасность
перегрева
1009.7 1009.4 +25.6 26
СЗ 7
{10}
30 км в посл. час ливневой дождь 10/10 150 м
[Cu Sc]
+28.0 +25.1 84 +40 +40 очень
душно
1008.1 1007.8
СЗ 9
{9}
30 км {ливн. дождь} 9/6 540 м
[Cb cap Ac cuf]
+28.7 +24.6 79 +41 +41 опасность
перегрева
1006.8 1006.5
С 8
{10}
30 км 9/5 600 м
[Cu med, cong Ac cuf]
+28.1 +24.6 81 +40 +40 очень
душно
1008.2 1007.9
СЗ 5
{8}
20 км 8/4 630 м
[Cu Sc Ac trans Ci sp]
+27.7 +24.0 80 +38 +38 очень
душно
1010.4 1010.1 +29.6 3
СЗ 5
{6}
20 км 10/6 600 м
[Cb cap Ci ing]
+27.3 +24.0 82 +38 +38 очень
душно
1009.8 1009.5
Ю 5
{7}
10 км слаб. ливневой дождь ?/? +25.5 +23.4 88 +34 +34 очень
душно
1008.6 1008.3
З 2
{8}
30 км {ливн. дождь} 9/4 500 м
[Cb calv As op Ci sp]
+24.8 +23.8 94 +34 +34 очень
душно
1010.1 1009.8
нст 1
{3}
30 км в посл. час ливневой дождь 9/4 570 м
[Cu med, cong Ci ing]
+29.1 +25.6 81 +43 +52 опасность
перегрева
1011.7 1011.4 +24.7 5
Местоположение метеостанции Сейшелы (Сейшелы): широта -4.67 долгота 55.52 высота над уровнем моря 3 м.
В архиве по умолчанию представлена погода на Сейшелах за последнюю неделю. Архивные данные за месяц целиком и за предыдущие месяцы, начиная с января 2011 года, Вы можете получить, выбрав интересующий диапазон дат из раскрывающегося списка и нажав кнопку "Найти!".
*Определитесь, кто Вы:
Внимание! Время в таблицах - всемирное. Для получения местного времени необходимо прибавить поправку, которая равна 4 ч.
Смотрите также архив погоды в соседних городах и на ближайших метеорологических станциях:
Партнеры нашего сайта:      
Пояснения к столбцам:
  • Ветер - указаны скорость ветра в м/с - средняя за 10 мин, порывы в срок и между сроками (в фигурных скобках) и направление, откуда дует ветер: С - северный,
  • СВ - северо-восточный, В - восточный, ЮВ - юго-восточный, Ю - южный, ЮЗ - юго-западный, З - западный, СЗ - северо-западный.
  • Видимость - горизонтальная дальность видимости в метрах или километрах. При видимости от 1 до 10 км при отсутствии осадков обычно наблюдается дымка, при ухудшении видимости до 1 км и менее - туман. В сухую погоду видимость может ухудшаться дымом, пылью или мглою.
  • Явления - указаны атмосферные явления, наблюдавшиеся в срок или в последний час перед сроком; фигурными скобками обозначены явления, наблюдавшиеся между сроками (за 1-3 часа до срока); квадратными скобками обозначены град или гололедные отложения с указанием их диаметра в мм.
  • Облачность - указаны через наклонную черту общая и нижняя облачность в баллах и высота нижней границы облаков в метрах; квадратными скобками обозначены формы облаков: Ci - перистые, Cs - перисто-слоистые, Cc - перисто-кучевые, Ac - высококучевые, As - высокослоистые, Sc - слоисто-кучевые, Ns - слоисто-дождевые, Cu - кучевые, Cb - кучево-дождевые. Подробнее классификацию облаков см. в Атласе облаков (PDF).
  • T - Температура воздуха - температура, измеренная на высоте 2 м над землей.
  • Td - Температура точки росы - температура, при понижении до которой содержащийся в воздухе водяной пар достигнет насыщения.
  • f - Относительная влажность воздуха - влажноcть воздуха, измеренная на высоте 2 м над землей.
  • Te - Эффективная температура - температура, которую ощущает одетый по сезону человек в тени. Характеристика душности погоды. При расчете учитывается влияние влажности воздуха и скорости ветра на теплоощущения человека.
  • Tes - Эффективная температура на солнце - температура, которую ощущает человек, с поправкой на солнечный нагрев. Характеристика знойности погоды. Зависит от высоты солнца над горизонтом, облачности и скорости ветра. Ночью, в пасмурную погоду, а также при ветре 12 м/с и более поправка равна нулю.
  • P - Атмосферное давление - приведенное к уровню моря атмосферное давление.
  • Po - Атмосферное давление - измеренное на уровне метеостанции атмосферное давление.
  • Tmin - Минимальная температура - минимум температуры воздуха на высоте 2 м над землей.
  • Tmax - Максимальная температура - максимум температуры воздуха на высоте 2 м над землей.
  • R - Количество осадков - Количество выпавших осадков за период времени, мм. При наведении курсора мыши на число - период времени, за который выпало указанное количество осадков.
  • R24 - Количество осадков - Количество выпавших осадков за 24 часа, мм.
  • S - Снежный покров - Высота снежного покрова, см. При наведении курсора мыши на число - состояние снежного покрова и степень покрытия местности в баллах.